Year,Month,Day,Hour,Minute,Value (Times are PST for insolation in W/m^2)
2006,07,10,00,00,0.00
2006,07,10,00,01,0.00
2006,07,10,00,02,0.00
2006,07,10,00,03,0.00
2006,07,10,00,04,0.00
2006,07,10,00,05,0.00
2006,07,10,00,06,0.00
2006,07,10,00,07,0.00
2006,07,10,00,08,0.00
2006,07,10,00,09,0.00
2006,07,10,00,10,0.00
2006,07,10,00,11,0.00
2006,07,10,00,12,0.00
2006,07,10,00,13,0.00
2006,07,10,00,14,0.00
2006,07,10,00,15,0.00
2006,07,10,00,16,0.00
2006,07,10,00,17,0.00
2006,07,10,00,18,0.00
2006,07,10,00,19,0.00
2006,07,10,00,20,0.00
2006,07,10,00,21,0.00
2006,07,10,00,22,0.00
2006,07,10,00,23,0.00
2006,07,10,00,24,0.00
2006,07,10,00,25,0.00
2006,07,10,00,26,0.00
2006,07,10,00,27,0.00
2006,07,10,00,28,0.00
2006,07,10,00,29,0.00
2006,07,10,00,30,0.00
2006,07,10,00,31,0.00
2006,07,10,00,32,0.00
2006,07,10,00,33,0.00
2006,07,10,00,34,0.00
2006,07,10,00,35,0.00
2006,07,10,00,36,0.00
2006,07,10,00,37,0.00
2006,07,10,00,38,0.00
2006,07,10,00,39,0.00
2006,07,10,00,40,0.00
2006,07,10,00,41,0.00
2006,07,10,00,42,0.00
2006,07,10,00,43,0.00
2006,07,10,00,44,0.00
2006,07,10,00,45,0.00
2006,07,10,00,46,0.00
2006,07,10,00,47,0.00
2006,07,10,00,48,0.00
2006,07,10,00,49,0.00
2006,07,10,00,50,0.00
2006,07,10,00,51,0.00
2006,07,10,00,52,0.00
2006,07,10,00,53,0.00
2006,07,10,00,54,0.00
2006,07,10,00,55,0.00
2006,07,10,00,56,0.00
2006,07,10,00,57,0.00
2006,07,10,00,58,0.00
2006,07,10,00,59,0.00
2006,07,10,01,00,0.00
2006,07,10,01,01,0.00
2006,07,10,01,02,0.00
2006,07,10,01,03,0.00
2006,07,10,01,04,0.00
2006,07,10,01,05,0.00
2006,07,10,01,06,0.00
2006,07,10,01,07,0.00
2006,07,10,01,08,0.00
2006,07,10,01,09,0.00
2006,07,10,01,10,0.00
2006,07,10,01,11,0.00
2006,07,10,01,12,0.00
2006,07,10,01,13,0.00
2006,07,10,01,14,0.00
2006,07,10,01,15,0.00
2006,07,10,01,16,0.00
2006,07,10,01,17,0.00
2006,07,10,01,18,0.00
2006,07,10,01,19,0.00
2006,07,10,01,20,0.00
2006,07,10,01,21,0.00
2006,07,10,01,22,0.00
2006,07,10,01,23,0.00
2006,07,10,01,24,0.00
2006,07,10,01,25,0.00
2006,07,10,01,26,0.00
2006,07,10,01,27,0.00
2006,07,10,01,28,0.00
2006,07,10,01,29,0.00
2006,07,10,01,30,0.00
2006,07,10,01,31,0.00
2006,07,10,01,32,0.00
2006,07,10,01,33,0.00
2006,07,10,01,34,0.00
2006,07,10,01,35,0.00
2006,07,10,01,36,0.00
2006,07,10,01,37,0.00
2006,07,10,01,38,0.00
2006,07,10,01,39,0.00
2006,07,10,01,40,0.00
2006,07,10,01,41,0.00
2006,07,10,01,42,0.00
2006,07,10,01,43,0.00
2006,07,10,01,44,0.00
2006,07,10,01,45,0.00
2006,07,10,01,46,0.00
2006,07,10,01,47,0.00
2006,07,10,01,48,0.00
2006,07,10,01,49,0.00
2006,07,10,01,50,0.00
2006,07,10,01,51,0.00
2006,07,10,01,52,0.00
2006,07,10,01,53,0.00
2006,07,10,01,54,0.00
2006,07,10,01,55,0.00
2006,07,10,01,56,0.00
2006,07,10,01,57,0.00
2006,07,10,01,58,0.00
2006,07,10,01,59,0.00
2006,07,10,02,00,0.00
2006,07,10,02,01,0.00
2006,07,10,02,02,0.00
2006,07,10,02,03,0.00
2006,07,10,02,04,0.00
2006,07,10,02,05,0.00
2006,07,10,02,06,0.00
2006,07,10,02,07,0.00
2006,07,10,02,08,0.00
2006,07,10,02,09,0.00
2006,07,10,02,10,0.00
2006,07,10,02,11,0.00
2006,07,10,02,12,0.00
2006,07,10,02,13,0.00
2006,07,10,02,14,0.00
2006,07,10,02,15,0.00
2006,07,10,02,16,0.00
2006,07,10,02,17,0.00
2006,07,10,02,18,0.00
2006,07,10,02,19,0.00
2006,07,10,02,20,0.00
2006,07,10,02,21,0.00
2006,07,10,02,22,0.00
2006,07,10,02,23,0.00
2006,07,10,02,24,0.00
2006,07,10,02,25,0.00
2006,07,10,02,26,0.00
2006,07,10,02,27,0.00
2006,07,10,02,28,0.00
2006,07,10,02,29,0.00
2006,07,10,02,30,0.00
2006,07,10,02,31,0.00
2006,07,10,02,32,0.00
2006,07,10,02,33,0.00
2006,07,10,02,34,0.00
2006,07,10,02,35,0.00
2006,07,10,02,36,0.00
2006,07,10,02,37,0.00
2006,07,10,02,38,0.00
2006,07,10,02,39,0.00
2006,07,10,02,40,0.00
2006,07,10,02,41,0.00
2006,07,10,02,42,0.00
2006,07,10,02,43,0.00
2006,07,10,02,44,0.00
2006,07,10,02,45,0.00
2006,07,10,02,46,0.00
2006,07,10,02,47,0.00
2006,07,10,02,48,0.00
2006,07,10,02,49,0.00
2006,07,10,02,50,0.00
2006,07,10,02,51,0.00
2006,07,10,02,52,0.00
2006,07,10,02,53,0.00
2006,07,10,02,54,0.00
2006,07,10,02,55,0.00
2006,07,10,02,56,0.00
2006,07,10,02,57,0.00
2006,07,10,02,58,0.00
2006,07,10,02,59,0.00
2006,07,10,03,00,0.00
2006,07,10,03,01,0.00
2006,07,10,03,02,0.00
2006,07,10,03,03,0.00
2006,07,10,03,04,0.00
2006,07,10,03,05,0.00
2006,07,10,03,06,0.00
2006,07,10,03,07,0.00
2006,07,10,03,08,0.00
2006,07,10,03,09,0.00
2006,07,10,03,10,0.00
2006,07,10,03,11,0.00
2006,07,10,03,12,0.00
2006,07,10,03,13,0.00
2006,07,10,03,14,0.00
2006,07,10,03,15,0.00
2006,07,10,03,16,0.00
2006,07,10,03,17,0.00
2006,07,10,03,18,0.00
2006,07,10,03,19,0.00
2006,07,10,03,20,0.00
2006,07,10,03,21,0.00
2006,07,10,03,22,0.00
2006,07,10,03,23,0.00
2006,07,10,03,24,0.00
2006,07,10,03,25,0.00
2006,07,10,03,26,0.00
2006,07,10,03,27,0.00
2006,07,10,03,28,0.00
2006,07,10,03,29,0.00
2006,07,10,03,30,0.00
2006,07,10,03,31,0.00
2006,07,10,03,32,0.00
2006,07,10,03,33,0.00
2006,07,10,03,34,0.00
2006,07,10,03,35,0.00
2006,07,10,03,36,0.00
2006,07,10,03,37,0.00
2006,07,10,03,38,0.00
2006,07,10,03,39,0.00
2006,07,10,03,40,0.00
2006,07,10,03,41,0.00
2006,07,10,03,42,0.00
2006,07,10,03,43,0.00
2006,07,10,03,44,0.00
2006,07,10,03,45,0.00
2006,07,10,03,46,0.00
2006,07,10,03,47,0.00
2006,07,10,03,48,0.00
2006,07,10,03,49,0.00
2006,07,10,03,50,0.00
2006,07,10,03,51,0.00
2006,07,10,03,52,0.00
2006,07,10,03,53,0.00
2006,07,10,03,54,0.00
2006,07,10,03,55,0.00
2006,07,10,03,56,0.00
2006,07,10,03,57,0.00
2006,07,10,03,58,0.00
2006,07,10,03,59,0.00
2006,07,10,04,00,0.00
2006,07,10,04,01,0.00
2006,07,10,04,02,0.00
2006,07,10,04,03,0.00
2006,07,10,04,04,0.00
2006,07,10,04,05,0.00
2006,07,10,04,06,0.00
2006,07,10,04,07,0.00
2006,07,10,04,08,0.00
2006,07,10,04,09,0.00
2006,07,10,04,10,0.00
2006,07,10,04,11,0.00
2006,07,10,04,12,0.00
2006,07,10,04,13,0.00
2006,07,10,04,14,0.00
2006,07,10,04,15,0.00
2006,07,10,04,16,0.00
2006,07,10,04,17,0.00
2006,07,10,04,18,0.00
2006,07,10,04,19,0.00
2006,07,10,04,20,0.00
2006,07,10,04,21,0.00
2006,07,10,04,22,0.00
2006,07,10,04,23,0.00
2006,07,10,04,24,0.00
2006,07,10,04,25,0.00
2006,07,10,04,26,0.00
2006,07,10,04,27,0.00
2006,07,10,04,28,0.00
2006,07,10,04,29,0.00
2006,07,10,04,30,0.00
2006,07,10,04,31,0.00
2006,07,10,04,32,0.00
2006,07,10,04,33,0.00
2006,07,10,04,34,0.00
2006,07,10,04,35,0.00
2006,07,10,04,36,0.00
2006,07,10,04,37,0.00
2006,07,10,04,38,0.00
2006,07,10,04,39,0.00
2006,07,10,04,40,0.00
2006,07,10,04,41,0.00
2006,07,10,04,42,0.00
2006,07,10,04,43,0.00
2006,07,10,04,44,0.00
2006,07,10,04,45,0.00
2006,07,10,04,46,0.00
2006,07,10,04,47,0.00
2006,07,10,04,48,0.00
2006,07,10,04,49,0.00
2006,07,10,04,50,0.00
2006,07,10,04,51,0.00
2006,07,10,04,52,0.00
2006,07,10,04,53,0.00
2006,07,10,04,54,0.00
2006,07,10,04,55,0.00
2006,07,10,04,56,0.00
2006,07,10,04,57,0.00
2006,07,10,04,58,0.00
2006,07,10,04,59,0.00
2006,07,10,05,00,0.00
2006,07,10,05,01,0.00
2006,07,10,05,02,0.00
2006,07,10,05,03,0.00
2006,07,10,05,04,0.00
2006,07,10,05,05,0.00
2006,07,10,05,06,0.00
2006,07,10,05,07,0.00
2006,07,10,05,08,0.00
2006,07,10,05,09,0.00
2006,07,10,05,10,0.00
2006,07,10,05,11,0.00
2006,07,10,05,12,0.00
2006,07,10,05,13,0.00
2006,07,10,05,14,0.00
2006,07,10,05,15,0.00
2006,07,10,05,16,0.00
2006,07,10,05,17,0.00
2006,07,10,05,18,0.00
2006,07,10,05,19,0.00
2006,07,10,05,20,0.00
2006,07,10,05,21,0.00
2006,07,10,05,22,0.00
2006,07,10,05,23,0.00
2006,07,10,05,24,0.00
2006,07,10,05,25,0.00
2006,07,10,05,26,0.00
2006,07,10,05,27,0.00
2006,07,10,05,28,0.00
2006,07,10,05,29,2.00
2006,07,10,05,30,5.00
2006,07,10,05,31,5.00
2006,07,10,05,32,5.00
2006,07,10,05,33,5.00
2006,07,10,05,34,5.00
2006,07,10,05,35,5.80
2006,07,10,05,36,7.00
2006,07,10,05,37,7.00
2006,07,10,05,38,7.00
2006,07,10,05,39,7.00
2006,07,10,05,40,7.00
2006,07,10,05,41,7.90
2006,07,10,05,42,9.00
2006,07,10,05,43,9.00
2006,07,10,05,44,9.00
2006,07,10,05,45,9.00
2006,07,10,05,46,9.00
2006,07,10,05,47,9.90
2006,07,10,05,48,11.00
2006,07,10,05,49,11.00
2006,07,10,05,50,11.00
2006,07,10,05,51,11.00
2006,07,10,05,52,11.00
2006,07,10,05,53,11.00
2006,07,10,05,54,11.00
2006,07,10,05,55,11.80
2006,07,10,05,56,12.00
2006,07,10,05,57,12.00
2006,07,10,05,58,12.00
2006,07,10,05,59,12.00
2006,07,10,06,00,12.00
2006,07,10,06,01,12.00
2006,07,10,06,02,12.00
2006,07,10,06,03,12.50
2006,07,10,06,04,14.00
2006,07,10,06,05,14.00
2006,07,10,06,06,14.00
2006,07,10,06,07,14.00
2006,07,10,06,08,14.00
2006,07,10,06,09,14.00
2006,07,10,06,10,14.00
2006,07,10,06,11,14.00
2006,07,10,06,12,14.00
2006,07,10,06,13,15.70
2006,07,10,06,14,16.00
2006,07,10,06,15,16.00
2006,07,10,06,16,16.80
2006,07,10,06,17,18.00
2006,07,10,06,18,18.00
2006,07,10,06,19,18.80
2006,07,10,06,20,21.20
2006,07,10,06,21,23.60
2006,07,10,06,22,25.50
2006,07,10,06,23,26.00
2006,07,10,06,24,26.00
2006,07,10,06,25,26.00
2006,07,10,06,26,25.80
2006,07,10,06,27,25.30
2006,07,10,06,28,26.00
2006,07,10,06,29,28.40
2006,07,10,06,30,30.00
2006,07,10,06,31,30.10
2006,07,10,06,32,32.20
2006,07,10,06,33,33.00
2006,07,10,06,34,33.00
2006,07,10,06,35,33.00
2006,07,10,06,36,32.20
2006,07,10,06,37,32.80
2006,07,10,06,38,29.60
2006,07,10,06,39,28.00
2006,07,10,06,40,28.00
2006,07,10,06,41,29.30
2006,07,10,06,42,30.00
2006,07,10,06,43,32.10
2006,07,10,06,44,34.60
2006,07,10,06,45,32.60
2006,07,10,06,46,31.00
2006,07,10,06,47,28.70
2006,07,10,06,48,28.00
2006,07,10,06,49,28.20
2006,07,10,06,50,30.00
2006,07,10,06,51,29.20
2006,07,10,06,52,28.00
2006,07,10,06,53,28.00
2006,07,10,06,54,28.00
2006,07,10,06,55,28.00
2006,07,10,06,56,28.00
2006,07,10,06,57,28.00
2006,07,10,06,58,28.00
2006,07,10,06,59,28.00
2006,07,10,07,00,28.00
2006,07,10,07,01,28.00
2006,07,10,07,02,28.60
2006,07,10,07,03,29.10
2006,07,10,07,04,28.00
2006,07,10,07,05,28.00
2006,07,10,07,06,28.00
2006,07,10,07,07,28.00
2006,07,10,07,08,28.00
2006,07,10,07,09,30.30
2006,07,10,07,10,35.30
2006,07,10,07,11,38.50
2006,07,10,07,12,58.90
2006,07,10,07,13,96.00
2006,07,10,07,14,85.30
2006,07,10,07,15,80.70
2006,07,10,07,16,97.10
2006,07,10,07,17,109.20
2006,07,10,07,18,119.80
2006,07,10,07,19,139.80
2006,07,10,07,20,179.00
2006,07,10,07,21,223.00
2006,07,10,07,22,236.70
2006,07,10,07,23,238.60
2006,07,10,07,24,242.80
2006,07,10,07,25,244.50
2006,07,10,07,26,246.70
2006,07,10,07,27,249.00
2006,07,10,07,28,250.00
2006,07,10,07,29,250.80
2006,07,10,07,30,239.50
2006,07,10,07,31,202.80
2006,07,10,07,32,135.30
2006,07,10,07,33,113.70
2006,07,10,07,34,118.80
2006,07,10,07,35,120.80
2006,07,10,07,36,91.20
2006,07,10,07,37,62.50
2006,07,10,07,38,48.20
2006,07,10,07,39,71.00
2006,07,10,07,40,115.40
2006,07,10,07,41,178.70
2006,07,10,07,42,201.20
2006,07,10,07,43,206.50
2006,07,10,07,44,200.00
2006,07,10,07,45,218.30
2006,07,10,07,46,257.30
2006,07,10,07,47,297.70
2006,07,10,07,48,304.70
2006,07,10,07,49,308.30
2006,07,10,07,50,310.80
2006,07,10,07,51,314.20
2006,07,10,07,52,315.00
2006,07,10,07,53,319.70
2006,07,10,07,54,322.10
2006,07,10,07,55,323.70
2006,07,10,07,56,326.90
2006,07,10,07,57,329.60
2006,07,10,07,58,333.10
2006,07,10,07,59,335.90
2006,07,10,08,00,338.50
2006,07,10,08,01,342.50
2006,07,10,08,02,345.50
2006,07,10,08,03,347.20
2006,07,10,08,04,351.10
2006,07,10,08,05,352.40
2006,07,10,08,06,357.50
2006,07,10,08,07,359.40
2006,07,10,08,08,362.10
2006,07,10,08,09,366.00
2006,07,10,08,10,370.30
2006,07,10,08,11,373.60
2006,07,10,08,12,380.30
2006,07,10,08,13,391.40
2006,07,10,08,14,377.00
2006,07,10,08,15,300.00
2006,07,10,08,16,229.00
2006,07,10,08,17,219.60
2006,07,10,08,18,159.10
2006,07,10,08,19,148.00
2006,07,10,08,20,200.20
2006,07,10,08,21,226.80
2006,07,10,08,22,246.70
2006,07,10,08,23,257.00
2006,07,10,08,24,333.40
2006,07,10,08,25,518.00
2006,07,10,08,26,513.00
2006,07,10,08,27,519.90
2006,07,10,08,28,520.50
2006,07,10,08,29,527.10
2006,07,10,08,30,533.30
2006,07,10,08,31,534.20
2006,07,10,08,32,535.70
2006,07,10,08,33,512.00
2006,07,10,08,34,303.80
2006,07,10,08,35,315.60
2006,07,10,08,36,513.00
2006,07,10,08,37,547.40
2006,07,10,08,38,585.00
2006,07,10,08,39,585.00
2006,07,10,08,40,259.80
2006,07,10,08,41,225.50
2006,07,10,08,42,229.40
2006,07,10,08,43,234.00
2006,07,10,08,44,234.00
2006,07,10,08,45,306.00
2006,07,10,08,46,303.20
2006,07,10,08,47,302.00
2006,07,10,08,48,276.50
2006,07,10,08,49,234.00
2006,07,10,08,50,234.00
2006,07,10,08,51,557.80
2006,07,10,08,52,626.00
2006,07,10,08,53,615.30
2006,07,10,08,54,585.00
2006,07,10,08,55,585.00
2006,07,10,08,56,585.00
2006,07,10,08,57,585.00
2006,07,10,08,58,244.40
2006,07,10,08,59,290.60
2006,07,10,09,00,270.50
2006,07,10,09,01,260.00
2006,07,10,09,02,535.50
2006,07,10,09,03,648.20
2006,07,10,09,04,638.60
2006,07,10,09,05,642.00
2006,07,10,09,06,581.50
2006,07,10,09,07,479.10
2006,07,10,09,08,468.00
2006,07,10,09,09,468.00
2006,07,10,09,10,494.70
2006,07,10,09,11,622.50
2006,07,10,09,12,605.10
2006,07,10,09,13,596.80
2006,07,10,09,14,592.90
2006,07,10,09,15,589.20
2006,07,10,09,16,584.50
2006,07,10,09,17,586.00
2006,07,10,09,18,584.50
2006,07,10,09,19,587.40
2006,07,10,09,20,590.50
2006,07,10,09,21,595.80
2006,07,10,09,22,601.00
2006,07,10,09,23,607.10
2006,07,10,09,24,621.00
2006,07,10,09,25,378.30
2006,07,10,09,26,257.00
2006,07,10,09,27,251.10
2006,07,10,09,28,192.70
2006,07,10,09,29,195.00
2006,07,10,09,30,195.00
2006,07,10,09,31,490.30
2006,07,10,09,32,623.40
2006,07,10,09,33,639.80
2006,07,10,09,34,630.50
2006,07,10,09,35,629.00
2006,07,10,09,36,629.00
2006,07,10,09,37,622.00
2006,07,10,09,38,617.30
2006,07,10,09,39,616.70
2006,07,10,09,40,615.00
2006,07,10,09,41,614.20
2006,07,10,09,42,614.10
2006,07,10,09,43,617.80
2006,07,10,09,44,620.70
2006,07,10,09,45,622.80
2006,07,10,09,46,628.00
2006,07,10,09,47,628.00
2006,07,10,09,48,628.50
2006,07,10,09,49,633.20
2006,07,10,09,50,635.90
2006,07,10,09,51,637.00
2006,07,10,09,52,642.90
2006,07,10,09,53,646.80
2006,07,10,09,54,650.70
2006,07,10,09,55,657.20
2006,07,10,09,56,667.40
2006,07,10,09,57,674.20
2006,07,10,09,58,683.30
2006,07,10,09,59,695.30
2006,07,10,10,00,707.30
2006,07,10,10,01,712.00
2006,07,10,10,02,612.50
2006,07,10,10,03,644.70
2006,07,10,10,04,796.80
2006,07,10,10,05,786.00
2006,07,10,10,06,786.00
2006,07,10,10,07,786.00
2006,07,10,10,08,786.00
2006,07,10,10,09,644.30
2006,07,10,10,10,134.00
2006,07,10,10,11,457.50
2006,07,10,10,12,755.30
2006,07,10,10,13,781.90
2006,07,10,10,14,793.00
2006,07,10,10,15,795.00
2006,07,10,10,16,770.00
2006,07,10,10,17,751.00
2006,07,10,10,18,771.50
2006,07,10,10,19,777.90
2006,07,10,10,20,781.60
2006,07,10,10,21,780.50
2006,07,10,10,22,786.50
2006,07,10,10,23,791.90
2006,07,10,10,24,784.90
2006,07,10,10,25,773.30
2006,07,10,10,26,788.40
2006,07,10,10,27,790.10
2006,07,10,10,28,784.10
2006,07,10,10,29,773.90
2006,07,10,10,30,766.50
2006,07,10,10,31,755.00
2006,07,10,10,32,752.00
2006,07,10,10,33,751.70
2006,07,10,10,34,751.00
2006,07,10,10,35,751.00
2006,07,10,10,36,754.70
2006,07,10,10,37,758.60
2006,07,10,10,38,756.70
2006,07,10,10,39,749.70
2006,07,10,10,40,754.80
2006,07,10,10,41,763.30
2006,07,10,10,42,774.20
2006,07,10,10,43,778.80
2006,07,10,10,44,779.60
2006,07,10,10,45,782.00
2006,07,10,10,46,784.50
2006,07,10,10,47,801.70
2006,07,10,10,48,830.30
2006,07,10,10,49,877.30
2006,07,10,10,50,821.90
2006,07,10,10,51,621.00
2006,07,10,10,52,701.30
2006,07,10,10,53,775.00
2006,07,10,10,54,553.50
2006,07,10,10,55,456.20
2006,07,10,10,56,410.00
2006,07,10,10,57,440.10
2006,07,10,10,58,487.00
2006,07,10,10,59,653.40
2006,07,10,11,00,748.50
2006,07,10,11,01,764.50
2006,07,10,11,02,844.00
2006,07,10,11,03,844.00
2006,07,10,11,04,844.00
2006,07,10,11,05,1078.40
2006,07,10,11,06,1121.00
2006,07,10,11,07,1109.00
2006,07,10,11,08,1109.00
2006,07,10,11,09,832.50
2006,07,10,11,10,460.80
2006,07,10,11,11,438.70
2006,07,10,11,12,425.30
2006,07,10,11,13,417.10
2006,07,10,11,14,411.50
2006,07,10,11,15,403.70
2006,07,10,11,16,389.30
2006,07,10,11,17,372.80
2006,07,10,11,18,361.20
2006,07,10,11,19,362.90
2006,07,10,11,20,367.70
2006,07,10,11,21,377.00
2006,07,10,11,22,418.40
2006,07,10,11,23,464.50
2006,07,10,11,24,428.60
2006,07,10,11,25,437.60
2006,07,10,11,26,471.30
2006,07,10,11,27,491.00
2006,07,10,11,28,474.20
2006,07,10,11,29,496.40
2006,07,10,11,30,544.80
2006,07,10,11,31,933.00
2006,07,10,11,32,993.80
2006,07,10,11,33,1095.00
2006,07,10,11,34,1095.00
2006,07,10,11,35,1095.00
2006,07,10,11,36,997.00
2006,07,10,11,37,984.90
2006,07,10,11,38,973.70
2006,07,10,11,39,964.60
2006,07,10,11,40,952.50
2006,07,10,11,41,941.60
2006,07,10,11,42,933.20
2006,07,10,11,43,932.00
2006,07,10,11,44,933.20
2006,07,10,11,45,940.10
2006,07,10,11,46,950.40
2006,07,10,11,47,945.20
2006,07,10,11,48,938.70
2006,07,10,11,49,963.00
2006,07,10,11,50,912.10
2006,07,10,11,51,875.20
2006,07,10,11,52,895.20
2006,07,10,11,53,891.50
2006,07,10,11,54,888.50
2006,07,10,11,55,892.10
2006,07,10,11,56,895.00
2006,07,10,11,57,893.80
2006,07,10,11,58,893.00
2006,07,10,11,59,894.90
2006,07,10,12,00,898.70
2006,07,10,12,01,900.00
2006,07,10,12,02,897.00
2006,07,10,12,03,896.80
2006,07,10,12,04,896.00
2006,07,10,12,05,893.10
2006,07,10,12,06,883.40
2006,07,10,12,07,863.30
2006,07,10,12,08,882.30
2006,07,10,12,09,891.10
2006,07,10,12,10,901.60
2006,07,10,12,11,905.40
2006,07,10,12,12,911.70
2006,07,10,12,13,914.60
2006,07,10,12,14,915.00
2006,07,10,12,15,914.00
2006,07,10,12,16,915.50
2006,07,10,12,17,916.00
2006,07,10,12,18,915.10
2006,07,10,12,19,910.80
2006,07,10,12,20,910.00
2006,07,10,12,21,911.00
2006,07,10,12,22,917.70
2006,07,10,12,23,925.10
2006,07,10,12,24,923.40
2006,07,10,12,25,910.80
2006,07,10,12,26,902.90
2006,07,10,12,27,909.40
2006,07,10,12,28,897.20
2006,07,10,12,29,888.80
2006,07,10,12,30,852.20
2006,07,10,12,31,809.10
2006,07,10,12,32,790.60
2006,07,10,12,33,820.20
2006,07,10,12,34,853.90
2006,07,10,12,35,882.40
2006,07,10,12,36,897.70
2006,07,10,12,37,913.80
2006,07,10,12,38,910.50
2006,07,10,12,39,907.00
2006,07,10,12,40,906.00
2006,07,10,12,41,890.20
2006,07,10,12,42,920.30
2006,07,10,12,43,911.10
2006,07,10,12,44,882.90
2006,07,10,12,45,890.20
2006,07,10,12,46,915.80
2006,07,10,12,47,913.00
2006,07,10,12,48,906.60
2006,07,10,12,49,902.00
2006,07,10,12,50,898.20
2006,07,10,12,51,890.50
2006,07,10,12,52,897.40
2006,07,10,12,53,899.10
2006,07,10,12,54,894.90
2006,07,10,12,55,889.20
2006,07,10,12,56,894.90
2006,07,10,12,57,913.20
2006,07,10,12,58,907.40
2006,07,10,12,59,908.00
2006,07,10,13,00,906.50
2006,07,10,13,01,902.70
2006,07,10,13,02,905.00
2006,07,10,13,03,912.70
2006,07,10,13,04,914.00
2006,07,10,13,05,914.00
2006,07,10,13,06,914.00
2006,07,10,13,07,914.00
2006,07,10,13,08,914.00
2006,07,10,13,09,918.50
2006,07,10,13,10,917.20
2006,07,10,13,11,912.60
2006,07,10,13,12,915.70
2006,07,10,13,13,914.50
2006,07,10,13,14,908.30
2006,07,10,13,15,899.20
2006,07,10,13,16,896.30
2006,07,10,13,17,884.70
2006,07,10,13,18,879.30
2006,07,10,13,19,893.00
2006,07,10,13,20,901.50
2006,07,10,13,21,899.80
2006,07,10,13,22,891.70
2006,07,10,13,23,888.30
2006,07,10,13,24,874.00
2006,07,10,13,25,878.40
2006,07,10,13,26,863.00
2006,07,10,13,27,858.40
2006,07,10,13,28,866.50
2006,07,10,13,29,877.60
2006,07,10,13,30,888.50
2006,07,10,13,31,906.60
2006,07,10,13,32,905.80
2006,07,10,13,33,906.00
2006,07,10,13,34,895.80
2006,07,10,13,35,897.00
2006,07,10,13,36,896.30
2006,07,10,13,37,896.30
2006,07,10,13,38,906.60
2006,07,10,13,39,912.40
2006,07,10,13,40,918.00
2006,07,10,13,41,918.40
2006,07,10,13,42,918.50
2006,07,10,13,43,920.10
2006,07,10,13,44,919.30
2006,07,10,13,45,920.00
2006,07,10,13,46,926.50
2006,07,10,13,47,926.00
2006,07,10,13,48,921.80
2006,07,10,13,49,922.40
2006,07,10,13,50,915.20
2006,07,10,13,51,909.30
2006,07,10,13,52,890.30
2006,07,10,13,53,895.20
2006,07,10,13,54,899.50
2006,07,10,13,55,892.00
2006,07,10,13,56,896.40
2006,07,10,13,57,897.30
2006,07,10,13,58,907.80
2006,07,10,13,59,906.00
2006,07,10,14,00,905.90
2006,07,10,14,01,909.30
2006,07,10,14,02,911.30
2006,07,10,14,03,896.80
2006,07,10,14,04,896.30
2006,07,10,14,05,909.40
2006,07,10,14,06,913.20
2006,07,10,14,07,915.50
2006,07,10,14,08,912.30
2006,07,10,14,09,909.70
2006,07,10,14,10,905.70
2006,07,10,14,11,908.00
2006,07,10,14,12,911.00
2006,07,10,14,13,908.10
2006,07,10,14,14,903.70
2006,07,10,14,15,897.30
2006,07,10,14,16,894.20
2006,07,10,14,17,892.00
2006,07,10,14,18,889.00
2006,07,10,14,19,888.80
2006,07,10,14,20,890.70
2006,07,10,14,21,889.50
2006,07,10,14,22,891.00
2006,07,10,14,23,891.00
2006,07,10,14,24,889.60
2006,07,10,14,25,888.20
2006,07,10,14,26,890.90
2006,07,10,14,27,877.00
2006,07,10,14,28,877.90
2006,07,10,14,29,880.70
2006,07,10,14,30,873.70
2006,07,10,14,31,852.50
2006,07,10,14,32,840.30
2006,07,10,14,33,843.40
2006,07,10,14,34,815.70
2006,07,10,14,35,807.00
2006,07,10,14,36,808.50
2006,07,10,14,37,799.40
2006,07,10,14,38,788.00
2006,07,10,14,39,792.30
2006,07,10,14,40,811.00
2006,07,10,14,41,828.50
2006,07,10,14,42,835.20
2006,07,10,14,43,844.00
2006,07,10,14,44,866.50
2006,07,10,14,45,870.60
2006,07,10,14,46,867.50
2006,07,10,14,47,864.60
2006,07,10,14,48,860.70
2006,07,10,14,49,860.90
2006,07,10,14,50,861.00
2006,07,10,14,51,861.00
2006,07,10,14,52,861.00
2006,07,10,14,53,861.00
2006,07,10,14,54,861.00
2006,07,10,14,55,858.40
2006,07,10,14,56,860.00
2006,07,10,14,57,858.60
2006,07,10,14,58,825.50
2006,07,10,14,59,824.10
2006,07,10,15,00,849.50
2006,07,10,15,01,849.20
2006,07,10,15,02,848.50
2006,07,10,15,03,845.90
2006,07,10,15,04,842.90
2006,07,10,15,05,842.00
2006,07,10,15,06,842.00
2006,07,10,15,07,841.40
2006,07,10,15,08,836.50
2006,07,10,15,09,834.20
2006,07,10,15,10,831.90
2006,07,10,15,11,830.30
2006,07,10,15,12,830.90
2006,07,10,15,13,826.00
2006,07,10,15,14,825.40
2006,07,10,15,15,823.60
2006,07,10,15,16,821.80
2006,07,10,15,17,821.00
2006,07,10,15,18,820.80
2006,07,10,15,19,816.00
2006,07,10,15,20,816.00
2006,07,10,15,21,816.00
2006,07,10,15,22,816.00
2006,07,10,15,23,813.00
2006,07,10,15,24,813.70
2006,07,10,15,25,811.50
2006,07,10,15,26,809.00
2006,07,10,15,27,808.00
2006,07,10,15,28,805.80
2006,07,10,15,29,803.40
2006,07,10,15,30,802.00
2006,07,10,15,31,799.60
2006,07,10,15,32,798.00
2006,07,10,15,33,797.00
2006,07,10,15,34,795.30
2006,07,10,15,35,795.00
2006,07,10,15,36,789.30
2006,07,10,15,37,789.00
2006,07,10,15,38,789.80
2006,07,10,15,39,790.00
2006,07,10,15,40,789.00
2006,07,10,15,41,775.00
2006,07,10,15,42,786.60
2006,07,10,15,43,781.00
2006,07,10,15,44,783.20
2006,07,10,15,45,781.00
2006,07,10,15,46,780.00
2006,07,10,15,47,777.50
2006,07,10,15,48,776.70
2006,07,10,15,49,776.30
2006,07,10,15,50,779.60
2006,07,10,15,51,777.90
2006,07,10,15,52,773.50
2006,07,10,15,53,771.80
2006,07,10,15,54,767.70
2006,07,10,15,55,770.30
2006,07,10,15,56,773.90
2006,07,10,15,57,763.80
2006,07,10,15,58,761.50
2006,07,10,15,59,761.20
2006,07,10,16,00,763.80
2006,07,10,16,01,757.40
2006,07,10,16,02,752.80
2006,07,10,16,03,744.70
2006,07,10,16,04,744.30
2006,07,10,16,05,746.60
2006,07,10,16,06,744.00
2006,07,10,16,07,744.00
2006,07,10,16,08,744.00
2006,07,10,16,09,740.30
2006,07,10,16,10,738.00
2006,07,10,16,11,735.50
2006,07,10,16,12,725.90
2006,07,10,16,13,694.90
2006,07,10,16,14,714.50
2006,07,10,16,15,715.00
2006,07,10,16,16,705.90
2006,07,10,16,17,694.70
2006,07,10,16,18,709.20
2006,07,10,16,19,717.00
2006,07,10,16,20,717.00
2006,07,10,16,21,713.70
2006,07,10,16,22,708.90
2006,07,10,16,23,705.90
2006,07,10,16,24,692.20
2006,07,10,16,25,686.60
2006,07,10,16,26,683.70
2006,07,10,16,27,678.50
2006,07,10,16,28,665.90
2006,07,10,16,29,664.00
2006,07,10,16,30,660.90
2006,07,10,16,31,635.90
2006,07,10,16,32,624.00
2006,07,10,16,33,628.90
2006,07,10,16,34,628.00
2006,07,10,16,35,616.80
2006,07,10,16,36,623.60
2006,07,10,16,37,616.90
2006,07,10,16,38,623.20
2006,07,10,16,39,608.50
2006,07,10,16,40,587.90
2006,07,10,16,41,614.80
2006,07,10,16,42,630.20
2006,07,10,16,43,637.70
2006,07,10,16,44,640.00
2006,07,10,16,45,630.70
2006,07,10,16,46,618.00
2006,07,10,16,47,614.60
2006,07,10,16,48,612.70
2006,07,10,16,49,611.00
2006,07,10,16,50,614.40
2006,07,10,16,51,607.60
2006,07,10,16,52,605.30
2006,07,10,16,53,597.50
2006,07,10,16,54,592.00
2006,07,10,16,55,584.20
2006,07,10,16,56,567.90
2006,07,10,16,57,539.50
2006,07,10,16,58,546.00
2006,07,10,16,59,546.50
2006,07,10,17,00,560.50
2006,07,10,17,01,567.20
2006,07,10,17,02,555.70
2006,07,10,17,03,532.30
2006,07,10,17,04,481.60
2006,07,10,17,05,479.70
2006,07,10,17,06,463.00
2006,07,10,17,07,474.40
2006,07,10,17,08,427.00